Theta_e
309 308 308 307 307 306 306 306 301 311 313 301 303 295 299 300 301 303 300 301 298 295 295 295 296 299 303 300 301 298 301 298 294 298 306 308 304 301 301 295 292 295 291 293
308 308 307 307 306 306 301 303 303 310 308 292 292 297 299 300 298 295 294 295 297 296 293 291 297 296 302 297 296 297 297 294 290 292 298 303 300 302 303 301 300 295 292 293
308 308 307 307 306 306 307 303 296 299 302 298 295 294 294 294 298 294 294 294 296 290 288 291 289 291 295 295 294 300 298 293 291 289 293 299 297 301 302 299 292 294 296 299
309 308 308 307 306 306 307 300 296 298 292 293 293 293 291 289 288 293 293 291 290 288 284 286 286 288 288 291 296 291 290 285 288 287 292 296 298 299 300 297 297 294 298 299
309 308 308 307 306 306 302 296 294 296 295 295 292 291 288 288 290 290 289 288 290 289 284 286 283 286 285 285 288 287 288 284 286 287 293 296 295 299 300 299 299 298 301 301
309 308 308 308 307 306 300 301 302 297 295 291 288 288 290 291 292 293 293 291 289 288 290 292 291 290 289 289 286 285 284 283 285 280 288 289 288 295 298 299 300 299 295 299
308 308 308 308 308 306 304 302 301 295 290 290 290 292 293 292 292 290 294 293 290 293 297 295 293 291 291 291 290 290 284 282 284 279 284 278 292 297 298 295 298 296 298 303
308 308 308 308 308 307 304 306 300 296 290 293 292 293 293 293 294 292 293 295 295 296 293 287 283 283 285 287 291 289 289 284 278 277 277 285 288 293 294 293 291 303 302 304
307 308 308 308 308 307 304 306 305 299 292 291 295 293 293 289 289 290 293 297 297 295 288 285 278 278 282 282 285 291 292 292 284 279 270 273 286 294 299 301 286 303 304 303
306 306 307 308 308 308 304 306 308 300 293 297 297 292 291 295 292 288 291 292 291 293 285 281 279 278 285 279 281 282 283 283 281 280 278 283 290 295 300 288 289 301 305 303
306 306 306 307 308 308 304 303 310 301 295 297 301 300 296 295 292 287 291 289 290 287 282 282 281 280 281 282 285 285 284 281 281 283 281 279 294 295 289 294 299 303 303 307
306 306 306 307 307 307 307 301 308 308 300 298 303 304 304 301 299 294 293 291 290 291 285 285 285 280 282 282 278 290 282 286 283 286 284 292 296 296 299 300 300 301 302 307
306 306 306 307 307 307 306 301 305 303 298 298 300 299 304 305 303 303 292 293 296 292 294 288 287 282 284 278 281 285 289 294 287 288 292 294 296 299 300 300 301 305 309 307
306 307 307 307 307 307 306 302 306 303 297 292 296 305 302 307 306 304 301 298 298 297 294 289 286 284 290 284 286 286 290 291 288 289 293 296 297 297 297 299 303 304 304 303
306 306 307 307 307 306 305 305 308 305 297 289 292 298 304 306 305 303 302 298 294 291 288 287 285 290 289 290 288 288 290 288 286 287 293 293 295 296 297 300 302 303 302 301
306 307 307 307 306 306 304 301 307 306 304 294 288 300 303 303 303 302 298 295 292 291 289 288 289 295 289 285 283 290 292 295 292 293 296 294 295 297 304 302 303 302 301 300
306 306 307 307 307 305 300 296 301 305 306 295 291 293 301 303 301 301 298 297 293 292 290 288 289 290 289 285 283 289 295 297 297 298 298 293 293 293 297 300 301 301 299 298
306 307 307 306 306 304 301 304 306 303 301 298 290 291 295 301 294 293 298 294 295 293 291 291 289 290 289 285 290 293 295 296 296 297 298 295 295 295 295 297 297 295 295 296
306 307 307 305 303 303 303 308 306 307 302 294 294 289 287 299 295 295 297 296 289 293 289 292 290 287 285 291 292 293 295 294 295 297 297 294 293 293 294 295 295 293 293 294
306 305 304 302 306 308 307 303 301 300 301 299 293 296 291 295 293 292 293 296 290 286 293 295 286 285 295 297 297 298 297 298 298 293 291 292 292 293 293 294 295 295 295 295
308 303 302 305 308 305 304 298 297 298 295 297 295 294 290 298 290 290 293 292 293 286 289 288 286 286 294 300 299 301 300 296 295 295 294 294 294 294 294 295 297 297 297 296
300 299 303 306 305 301 296 293 296 294 290 295 292 293 295 296 299 293 295 292 293 286 295 288 285 290 296 300 301 300 302 301 297 296 296 296 297 297 296 296 296 297 299 299
308 302 301 298 299 289 288 284 289 289 293 295 294 290 296 297 298 294 294 290 288 297 288 285 286 292 297 301 302 303 303 304 300 298 298 298 298 299 298 298 299 299 298 299
302 298 287 293 291 291 292 291 291 294 293 293 294 293 294 298 294 295 290 294 293 285 284 284 290 297 300 303 304 303 303 304 305 304 302 302 300 300 301 302 302 302 301 300
299 298 289 292 297 297 296 296 294 296 297 296 295 296 297 296 294 295 293 289 285 284 285 291 296 299 300 301 303 304 305 305 305 306 306 304 304 303 303 304 304 304 302 300
301 298 295 297 295 294 295 295 295 300 299 300 299 295 293 292 293 289 286 285 284 287 293 298 300 300 302 302 303 305 306 306 306 306 307 307 305 304 304 305 303 304 301 298
297 297 300 298 297 296 295 295 296 302 298 294 295 290 289 294 288 285 287 286 291 295 298 301 301 300 302 303 304 305 306 305 306 306 306 306 307 306 305 300 302 302 302 300
Wind_Speed
30 32 34 35 34 33 8 4 5 8 4 6 4 8 10 10 17 19 14 9 13 12 13 9 9 7 9 28 25 14 12 6 7 10 14 15 8 5 12 11 10 3 1 8
30 33 34 36 37 25 6 4 2 12 10 7 6 9 12 13 20 21 15 12 11 15 15 9 13 19 22 28 25 16 13 7 6 10 6 7 7 6 3 4 15 20 11 9
29 32 34 37 39 36 1 4 5 6 8 5 9 6 16 14 20 17 15 10 11 19 16 14 14 17 17 26 24 24 13 6 8 9 11 15 11 14 6 6 5 4 13 19
28 30 33 36 40 40 4 6 4 4 5 8 12 10 12 16 14 13 13 8 15 13 8 13 10 22 24 22 17 17 14 7 16 26 22 19 24 22 20 13 7 8 8 8
26 29 31 34 39 37 11 5 4 5 2 8 11 10 9 13 13 9 11 8 10 9 7 8 17 17 15 13 13 16 7 7 17 21 16 14 20 22 23 18 13 8 8 8
24 26 28 31 33 23 7 6 6 1 6 9 7 5 7 10 8 5 10 10 7 8 13 13 12 11 17 20 19 17 13 7 1 11 16 22 11 11 14 16 8 5 7 14
22 24 26 26 28 24 3 6 4 4 5 8 9 12 10 11 12 9 12 10 7 10 12 13 12 15 16 20 20 17 16 13 7 9 8 9 8 14 14 17 8 17 12 15
21 22 23 24 25 27 4 6 6 4 5 9 10 12 13 11 10 11 10 14 11 11 8 7 8 13 8 9 10 22 9 12 4 7 5 14 22 10 17 13 18 15 15 16
18 19 21 23 23 23 6 4 3 3 3 6 9 8 11 7 9 6 11 14 11 7 3 6 6 3 7 7 12 10 8 2 8 6 2 4 8 18 19 1 3 16 16 14
19 20 20 20 22 22 7 2 3 3 3 5 5 5 7 6 7 5 8 13 9 7 5 5 3 5 9 5 9 13 10 5 6 9 9 6 12 20 15 7 5 16 12 9
17 17 19 20 18 19 10 6 5 3 3 8 5 7 5 4 3 4 8 7 7 4 6 4 4 4 5 5 12 7 6 6 4 4 4 2 15 12 7 6 11 12 14 9
16 18 18 18 17 16 13 3 6 7 3 6 7 6 5 4 7 3 4 3 4 3 3 4 4 3 4 10 5 6 5 5 4 2 2 7 10 4 9 10 10 9 11 2
16 17 17 17 16 14 9 4 5 4 3 5 5 4 5 10 7 6 2 2 0 1 3 1 3 5 3 4 4 13 12 6 2 6 6 7 5 7 10 12 13 13 8 15
16 16 17 16 15 12 9 3 5 3 4 3 2 7 8 6 3 5 3 3 4 3 2 1 3 4 3 3 8 8 3 7 9 2 8 8 9 11 13 16 13 16 17 20
17 18 17 15 13 10 5 4 1 2 2 3 6 10 3 3 3 4 6 7 5 2 1 2 3 4 4 3 5 3 3 4 4 3 10 7 11 17 22 6 12 11 18 21
18 18 17 14 10 6 2 1 2 4 1 2 3 4 4 9 5 7 9 5 4 1 2 2 4 2 2 4 4 5 14 8 5 4 12 13 14 19 18 17 13 17 18 15
18 17 15 11 8 3 2 2 1 3 1 0 3 2 4 5 6 2 4 3 3 1 2 2 3 3 3 2 4 11 14 17 7 10 5 11 19 13 18 16 11 14 17 15
17 15 14 8 8 6 3 3 4 2 3 2 3 4 4 5 4 4 2 2 2 1 3 3 3 4 0 4 4 13 12 11 12 9 9 12 10 15 16 13 13 16 14 13
16 13 8 3 2 3 2 5 4 3 2 3 3 3 4 4 4 3 2 1 3 1 2 3 4 4 6 9 1 2 7 5 3 4 10 11 12 11 14 14 14 12 9 9
13 3 3 3 2 10 9 2 3 0 0 2 1 3 3 3 3 3 4 0 1 2 1 1 4 3 4 11 12 2 5 5 2 7 7 6 8 8 9 8 6 7 8 9
2 3 3 4 7 3 3 2 2 3 1 3 4 4 4 1 3 3 2 3 3 3 2 3 4 5 9 13 12 13 7 6 4 6 6 7 7 6 5 4 4 6 7 7
4 4 6 4 3 1 3 4 2 5 3 3 4 3 2 4 3 3 4 3 3 4 3 4 5 5 15 11 9 10 10 8 7 7 7 6 6 6 6 6 5 6 7 8
2 3 4 3 2 7 5 7 3 3 4 3 5 4 3 3 3 4 2 4 3 4 4 4 2 12 12 11 7 10 8 7 5 5 5 6 7 7 6 5 6 7 6 6
4 3 5 2 4 4 2 3 2 1 3 5 4 4 3 3 3 3 3 4 5 4 4 4 7 13 11 9 5 3 6 10 10 5 5 4 5 6 6 5 4 4 5 6
3 4 4 4 4 2 2 1 2 4 5 4 4 4 3 4 2 3 4 5 4 4 3 4 5 7 9 10 10 11 6 4 6 7 7 1 4 6 6 5 5 7 9 7
2 5 4 4 4 4 1 2 3 3 3 4 3 4 3 4 3 5 7 4 4 4 5 7 5 7 7 7 10 13 12 6 5 8 9 3 7 6 5 6 6 7 8 6
4 2 4 3 2 2 3 2 3 2 2 2 3 5 5 5 5 4 3 3 4 7 7 7 8 6 7 7 7 7 10 11 9 7 7 6 5 5 5 5 3 6 7 6
Wind_Direction
355 356 356 353 353 344 7 324 60 325 348 52 342 37 350 333 30 27 21 357 9 12 334 316 322 324 347 25 8 9 14 279 270 249 285 294 289 250 223 211 255 276 199 260
358 358 358 355 350 7 308 345 339 25 44 55 355 354 7 33 35 36 20 359 3 12 11 331 342 345 346 14 5 14 345 313 328 329 310 296 258 273 221 178 225 249 265 264
1 1 0 359 352 345 321 355 23 355 51 43 33 351 22 7 32 27 6 3 6 5 350 352 320 320 337 349 340 2 354 299 331 275 303 321 306 311 300 159 176 203 233 257
4 3 4 4 357 347 11 18 61 344 10 22 45 52 16 14 10 14 27 7 4 352 335 319 339 339 336 341 344 349 1 298 339 314 313 307 302 282 284 271 227 174 228 235
5 6 7 7 5 345 45 45 15 335 340 49 59 23 16 17 11 5 7 355 346 344 331 338 328 330 326 312 311 317 302 273 313 302 317 322 297 288 272 278 291 296 249 232
8 8 9 10 11 357 37 348 306 265 19 57 51 38 6 1 344 346 335 320 336 358 352 334 315 292 284 279 275 271 276 257 273 272 352 333 294 290 301 305 297 308 6 324
10 8 8 10 12 14 289 4 316 356 22 61 51 17 357 349 2 328 347 1 26 351 325 306 296 288 288 284 275 250 240 243 250 284 322 257 295 333 28 2 13 8 338 335
9 8 6 8 9 6 337 12 13 352 325 12 26 358 20 359 345 348 345 2 359 335 318 305 306 313 310 320 335 39 310 232 244 227 241 283 297 306 2 337 312 17 359 358
6 6 7 6 5 6 338 35 345 311 314 26 21 11 11 348 346 336 340 357 332 318 301 309 313 314 331 321 317 330 343 308 221 247 245 288 22 347 335 29 265 360 355 356
4 4 3 3 357 359 347 270 10 358 313 32 9 35 4 353 1 321 322 339 326 354 326 341 348 305 327 334 328 329 329 326 224 206 243 259 351 328 314 207 350 325 332 358
355 356 360 358 352 356 359 282 286 76 319 284 47 3 347 334 20 324 319 335 18 331 2 12 339 345 300 316 315 301 332 342 5 328 284 272 347 342 24 313 312 328 333 347
349 354 351 347 346 350 350 305 333 330 202 260 275 264 312 42 66 29 328 264 356 3 353 17 305 303 273 321 297 337 354 360 314 255 311 264 305 353 328 331 320 321 308 348
344 345 341 339 340 343 346 294 305 321 308 290 88 133 158 86 87 127 17 354 328 33 130 261 277 272 310 307 296 316 348 338 292 323 334 359 323 1 5 357 317 320 108 98
336 336 335 335 334 332 327 315 312 7 298 290 56 46 15 104 74 114 129 320 18 70 77 237 262 259 315 266 277 312 337 333 319 236 349 320 18 3 342 324 323 105 81 78
332 333 334 333 331 326 303 267 153 95 19 326 309 308 146 265 328 41 79 49 37 13 354 261 259 331 345 322 277 14 324 335 329 314 8 358 350 334 315 303 83 89 90 84
331 331 330 332 332 332 294 143 74 29 343 95 313 328 31 13 121 91 76 67 58 35 342 307 302 277 359 321 322 320 305 295 257 339 55 31 13 336 66 77 56 79 76 86
326 328 324 326 326 305 329 32 57 334 278 12 301 286 91 358 29 111 86 91 81 359 323 282 293 302 37 340 328 315 20 31 69 36 63 38 22 12 37 51 57 68 76 67
322 320 312 306 300 284 242 191 223 289 261 245 347 326 345 46 356 336 43 30 105 84 320 275 295 292 200 42 22 33 20 39 53 67 72 70 51 22 36 54 54 63 67 73
318 301 292 286 196 246 71 158 171 238 299 22 17 356 326 25 360 306 287 87 27 118 317 334 345 327 38 344 248 79 84 93 132 106 99 95 80 61 35 24 53 58 65 69
325 225 220 227 83 120 130 141 172 221 184 65 14 27 325 17 339 274 343 139 239 9 67 119 31 302 355 352 4 23 189 222 28 49 45 88 92 83 81 72 34 55 43 48
303 321 0 358 155 214 210 215 196 149 110 52 17 44 323 144 332 308 276 292 254 24 7 70 344 345 357 2 13 5 20 87 83 97 75 52 87 133 138 128 84 66 61 57
314 288 275 256 242 241 349 5 54 53 47 18 357 323 291 287 192 253 272 272 347 25 73 40 341 324 340 341 349 351 343 350 63 81 86 86 88 80 77 80 78 65 56 44
207 210 239 63 15 38 33 3 9 353 7 7 345 315 283 288 219 257 291 333 15 41 34 331 313 315 326 328 335 345 10 353 88 118 124 129 122 121 117 99 89 103 94 75
239 206 8 68 29 45 28 307 305 336 266 301 301 264 237 243 276 247 338 6 59 19 3 360 331 347 3 8 38 343 25 11 360 7 14 43 110 114 108 105 94 87 111 93
313 47 43 33 104 82 60 346 271 219 234 254 279 252 227 265 258 24 12 46 23 2 6 311 10 339 332 359 8 24 21 349 39 12 356 334 82 97 83 77 73 66 74 66
44 37 352 23 47 43 12 318 296 273 297 292 221 262 306 16 26 43 23 31 11 319 313 337 359 337 341 344 360 2 24 55 43 80 50 42 115 115 104 79 86 96 96 100
55 38 49 64 88 324 257 204 252 282 316 307 318 36 4 12 47 37 24 350 321 305 306 324 313 317 322 336 347 357 35 51 74 50 36 54 95 112 112 114 146 124 137 146